TimeMDT,TemperatureF,Dew PointF,Humidity,Sea Level PressureIn,VisibilityMPH,Wind Direction,Wind SpeedMPH,Gust SpeedMPH,PrecipitationIn,Events,Conditions,WindDirDegrees,DateUTC
12:06 AM,59.0,57.2,94,30.06,4.0,SW,4.6,-,0.03,Rain,Rain,230,2013-09-15 06:06:00
12:51 AM,59.0,57.2,94,30.06,2.5,Calm,Calm,-,0.15,Rain,Rain,0,2013-09-15 06:51:00
12:53 AM,59.0,57.9,96,29.94,2.0,Calm,Calm,-,0.16,Rain,Rain,0,2013-09-15 06:53:00
1:18 AM,60.8,57.2,88,30.07,3.0,NE,3.5,-,0.11,Rain,Rain,50,2013-09-15 07:18:00
1:53 AM,60.1,57.9,93,29.93,7.0,North,4.6,-,0.18,Rain,Light Rain,360,2013-09-15 07:53:00
2:37 AM,60.8,57.2,88,30.05,10.0,North,9.2,-,0.01,Rain,Light Rain,350,2013-09-15 08:37:00
2:53 AM,60.1,57.9,93,29.91,10.0,NNW,9.2,-,0.01,,Overcast,340,2013-09-15 08:53:00
3:29 AM,60.8,59.0,94,30.06,10.0,North,10.4,-,N/A,,Overcast,10,2013-09-15 09:29:00
3:53 AM,61.0,59.0,93,29.92,9.0,NNE,15.0,-,N/A,,Overcast,20,2013-09-15 09:53:00
4:27 AM,60.8,59.0,94,30.08,2.5,NNE,15.0,-,0.01,,Overcast,20,2013-09-15 10:27:00
4:39 AM,60.8,59.0,94,30.08,4.0,NNE,13.8,-,0.01,,Overcast,30,2013-09-15 10:39:00
4:53 AM,60.1,57.9,93,29.95,7.0,NNE,13.8,-,0.01,,Overcast,30,2013-09-15 10:53:00
5:53 AM,59.0,57.0,93,29.99,10.0,NNE,12.7,-,0.00,,Overcast,30,2013-09-15 11:53:00
6:03 AM,59.0,57.2,94,30.12,10.0,NE,13.8,-,0.00,Rain,Light Rain,40,2013-09-15 12:03:00
6:53 AM,57.9,55.9,93,30.03,3.0,NE,16.1,-,0.05,Rain,Light Rain,40,2013-09-15 12:53:00
7:29 AM,57.2,55.4,94,30.17,10.0,NE,15.0,-,0.00,,Overcast,40,2013-09-15 13:29:00
7:36 AM,57.2,55.4,94,30.17,10.0,NE,15.0,-,0.00,,Overcast,50,2013-09-15 13:36:00
7:53 AM,57.0,55.9,96,30.06,4.0,NE,11.5,-,0.02,Rain,Light Rain,50,2013-09-15 13:53:00
8:28 AM,57.2,55.4,94,30.18,2.5,NNE,17.3,-,0.04,Rain,Light Rain,30,2013-09-15 14:28:00
8:35 AM,57.2,55.4,94,30.19,5.0,NE,17.3,-,0.05,Rain,Light Rain,40,2013-09-15 14:35:00
8:53 AM,57.0,55.0,93,30.09,10.0,NE,15.0,-,0.05,Rain,Light Rain,50,2013-09-15 14:53:00
9:35 AM,57.2,55.4,94,30.22,10.0,NE,16.1,-,0.00,,Overcast,50,2013-09-15 15:35:00
9:49 AM,59.0,55.4,88,30.22,10.0,NE,15.0,-,0.00,,Overcast,50,2013-09-15 15:49:00
9:53 AM,59.0,55.9,90,30.13,10.0,NE,13.8,-,0.00,,Overcast,50,2013-09-15 15:53:00
10:04 AM,57.2,55.4,94,30.23,4.0,NE,13.8,-,0.00,Rain,Light Rain,50,2013-09-15 16:04:00
10:11 AM,57.2,55.4,94,30.23,1.8,ENE,12.7,-,0.01,Rain,Light Rain,60,2013-09-15 16:11:00
10:29 AM,59.0,55.4,88,30.24,4.0,ENE,17.3,-,0.03,Rain,Light Rain,70,2013-09-15 16:29:00
10:41 AM,59.0,55.4,88,30.24,10.0,ENE,16.1,-,0.03,,Overcast,70,2013-09-15 16:41:00
10:53 AM,57.9,55.0,90,30.17,10.0,ENE,17.3,-,0.03,,Overcast,70,2013-09-15 16:53:00
11:01 AM,57.2,55.4,94,30.25,7.0,ENE,15.0,-,N/A,,Overcast,60,2013-09-15 17:01:00
11:21 AM,59.0,55.4,88,30.25,9.0,NE,12.7,-,N/A,,Overcast,50,2013-09-15 17:21:00
11:38 AM,59.0,55.4,88,30.25,10.0,NE,13.8,-,N/A,,Overcast,50,2013-09-15 17:38:00
11:53 AM,60.1,55.9,86,30.17,10.0,ENE,11.5,-,N/A,,Overcast,60,2013-09-15 17:53:00
12:23 PM,59.0,55.4,88,30.26,5.0,NE,11.5,-,0.00,Rain,Light Rain,50,2013-09-15 18:23:00
12:30 PM,60.8,55.4,82,30.26,10.0,NE,12.7,-,0.00,,Overcast,50,2013-09-15 18:30:00
12:45 PM,60.8,55.4,82,30.26,10.0,ENE,12.7,-,0.00,,Overcast,70,2013-09-15 18:45:00
12:53 PM,60.1,55.9,86,30.18,8.0,ENE,13.8,-,0.00,,Overcast,70,2013-09-15 18:53:00
1:01 PM,60.8,55.4,82,30.26,7.0,ENE,12.7,-,0.00,Rain,Light Rain,60,2013-09-15 19:01:00
1:13 PM,60.8,55.4,82,30.26,10.0,ENE,12.7,-,0.00,,Overcast,70,2013-09-15 19:13:00
1:23 PM,62.6,55.4,77,30.26,10.0,ENE,13.8,-,0.00,,Overcast,70,2013-09-15 19:23:00
1:53 PM,63.0,55.0,75,30.17,10.0,ENE,11.5,-,0.00,,Mostly Cloudy,70,2013-09-15 19:53:00
2:53 PM,63.0,53.1,70,30.17,10.0,ENE,15.0,-,N/A,,Overcast,60,2013-09-15 20:53:00
3:09 PM,62.6,53.6,72,30.27,10.0,East,15.0,-,N/A,,Mostly Cloudy,80,2013-09-15 21:09:00
3:16 PM,64.4,53.6,68,30.27,10.0,ENE,16.1,-,N/A,,Mostly Cloudy,70,2013-09-15 21:16:00
3:53 PM,64.0,51.1,63,30.17,10.0,ENE,12.7,-,N/A,,Partly Cloudy,70,2013-09-15 21:53:00
4:53 PM,64.0,52.0,65,30.18,10.0,ENE,13.8,-,N/A,,Mostly Cloudy,70,2013-09-15 22:53:00
5:53 PM,62.1,51.1,67,30.19,10.0,ENE,12.7,-,N/A,,Partly Cloudy,70,2013-09-15 23:53:00
6:53 PM,59.0,51.1,75,30.21,10.0,ENE,6.9,-,N/A,,Clear,70,2013-09-16 00:53:00
7:53 PM,57.9,53.1,84,30.22,10.0,ENE,4.6,-,N/A,,Mostly Cloudy,70,2013-09-16 01:53:00
8:53 PM,57.0,53.1,87,30.25,10.0,ENE,5.8,-,N/A,,Partly Cloudy,70,2013-09-16 02:53:00
9:33 PM,57.2,51.8,82,30.31,10.0,East,12.7,-,N/A,,Overcast,90,2013-09-16 03:33:00
9:53 PM,55.9,52.0,87,30.25,10.0,East,9.2,-,N/A,,Overcast,100,2013-09-16 03:53:00
10:53 PM,55.9,52.0,87,30.25,10.0,East,10.4,-,N/A,,Overcast,100,2013-09-16 04:53:00
11:53 PM,55.9,52.0,87,30.24,10.0,ESE,9.2,-,N/A,,Overcast,110,2013-09-16 05:53:00